Regional Weather Roundup
Issued by NWS Jackson, KY

Home | Current Version | Previous Version | Graphics & Text | Print | Product List | Glossary On
Versions: 1 2 3 4 5 6 7 8 9 10 11 12 13 14 15 16 17 18 19 20 21 22 23 24 25 26 27 28 29 30 31 32 33 34 35 36 37 38 39 40 41 42 43 44 45 46 47 48 49 50
000
ASUS43 KJKL 210011
RWRJKL

EAST KENTUCKY HOURLY WEATHER ROUNDUP
NATIONAL WEATHER SERVICE JACKSON KY
800 PM EDT WED AUG 20 2014

NOTE: "FAIR" INDICATES FEW OR NO CLOUDS BELOW 12,000 FEET WITH
NO SIGNIFICANT WEATHER AND/OR OBSTRUCTIONS TO VISIBILITY.

* THESE REPORTS ARE NOT UNDER NWS QUALITY CONTROL AND MAY NOT
  REPORT WEATHER SUCH AS PRECIPITATION AND FOG.

KYZ079-080-083-085-087-088-110-112-115-119-120-210100
...EASTERN KENTUCKY...

CITY           SKY/WX    TMP DP  RH WIND       PRES   REMARKS
JACKSON        CLOUDY    70  68  93 CALM      30.06S FOG
6HR MIN TEMP:  70; 6HR MAX TEMP:  87; 6HR PCP:  0.02;

LONDON         CLOUDY    71  67  87 SE5       30.08R
6HR MIN TEMP:  71; 6HR MAX TEMP:  90; 6HR PCP:  0.02;

SOMERSET*      CLOUDY    70  68  94 SW3       30.09R
MONTICELLO*    CLOUDY    71  69  93 CALM      30.10R
6HR MIN TEMP:  70; 6HR MAX TEMP:  90; 6HR PCP:  2.50;

WILLIAMSBURG*  CLEAR     68  68 100 S5        30.12R
MIDDLESBORO*   TSTM      69  68  96 CALM      30.12F
6HR MIN TEMP:  69; 6HR MAX TEMP:  88; 6HR PCP:  0.44;

HARLAN APT*    CLOUDY    68  68 100 MISG      30.14R
HAZARD APT*    LGT RAIN  70  70 100 SE5       30.06
BLACK MTN*       N/A     64  64 100 N2          N/A
PIKEVILLE APT* LGT RAIN  75  72  88 CALM      30.07R
BIG SANDY*     LGT RAIN  77  69  78 SW8       30.03R
6HR MIN TEMP:  76; 6HR MAX TEMP:  85;

MOREHEAD APT*  MOCLDY    75  70  83 SW7       30.02R
$$

KYZ035-036-041-042-044-050-067-078-099-210100
...CENTRAL KENTUCKY...

CITY           SKY/WX    TMP DP  RH WIND       PRES   REMARKS
MT STERLING*   CLOUDY    72  70  94 SW6       30.03R
FLEMING/MASON* CLEAR     73  70  88 SW5       30.00R
DANVILLE*      CLOUDY    68  68 100 CALM      30.05R
RICHMOND*      CLOUDY    70  66  88 CALM      30.03R
LEXINGTON      CLOUDY    72  67  84 S3        30.02R
6HR MIN TEMP:  67; 6HR MAX TEMP:  90; 6HR PCP:  0.52;

FRANKFORT      MOCLDY    73  69  87 S6        30.00R
6HR MIN TEMP:  70; 6HR MAX TEMP:  88; 6HR PCP:  0.15;

$$

KYZ091>093-OHZ055-061-077-WVZ005-015-034-035-042-210100
...SOUTHERN OHIO/WEST VIRGINIA...

CITY           SKY/WX    TMP DP  RH WIND       PRES   REMARKS
COVINGTON      MOCLDY    74  68  81 SW6       29.96S
COLUMBUS       PTCLDY    84  64  50 NW6       29.92R
DAYTON         PTCLDY    81  65  58 W5        29.94S
WILMINGTON     PTCLDY    78  65  63 SW6       29.94R
HUNTINGTON     CLOUDY    78  68  71 S3        29.97R
CHARLESTON     PTCLDY    78  70  76 S5        29.98R
PINEVILLE*     MOCLDY    74  74  98 MISG      30.10S
BECKLEY        PTCLDY    75  64  68 W6        30.08R
BLUEFIELD      PTCLDY    75  66  73 W7        30.11R
$$

VAZ002-007-008-TNZ017-027-036-066-071-210100
...SOUTHWEST VIRGINIA/EAST TENNESSEE...

CITY           SKY/WX    TMP DP  RH WIND       PRES   REMARKS
WISE*          TSTM      72  70  94 W8        30.16R
JONESVILLE*    TSTM      72  70  94 SW12      30.16R
ABINGDON*      CLOUDY    78  72  83 W7        30.09R
BRISTOL        CLOUDY    73  65  75 SW6       30.08R
KNOXVILLE      CLOUDY    72  67  84 N10       30.12R THUNDER
OAK RIDGE      HVY RAIN  69  66  90 VRB6G20   30.18R FOG
CROSSVILLE     CLOUDY    69  65  86 N7        30.16R
NASHVILLE      TSTM      72  70  93 S7        30.07R
$$

...KEY TO REMARKS...
VSB - VISIBILITY IN MILES
WCI - WIND CHILL INDEX
HX  - HEAT INDEX

$$



USA.gov is the U.S. government's official web portal to all federal, state and local government web resources and services.